When you browse on this site, cookies collect data to enhance your experience and personalize the content and advertising you see.
Visit our Privacy Policy to learn more. By continuing to use the site, you agree to this use of cookies and data.
  • In United Kingdom
  • List of Countries
  • For 7 days
  • Water Temperature
  • Satellite Maps
  • Weather Map
  • Weather Widgets
  • user-avatar
    Login

    Hourly Weather Omagh

    Today, 18 June, Tuesday

    Time Temperature Precipitation Wind Pressure Humidity
    00:00 +8°C° 0 mm 2 mps 751 mmHg 98%
    01:00 +7°C° 0 mm 2 mps 751 mmHg 98%
    02:00 +7°C° 0 mm 2 mps 751 mmHg 98%
    03:00 +7°C° 0 mm 2 mps 751 mmHg 99%
    04:00 +8°C° 0 mm 2 mps 751 mmHg 98%
    05:00 +8°C° 0 mm 3 mps 751 mmHg 97%
    06:00 +9°C° 0 mm 3 mps 751 mmHg 97%
    07:00 +10°C° 0 mm 3 mps 751 mmHg 93%
    08:00 +11°C° 0 mm 3 mps 751 mmHg 90%
    09:00 +12°C° 0 mm 3 mps 751 mmHg 87%
    10:00 +12°C° 0.2 mm 3 mps 751 mmHg 85%
    11:00 +13°C° 0.2 mm 3 mps 751 mmHg 84%
    12:00 +14°C° 0.2 mm 3 mps 751 mmHg 82%
    13:00 +14°C° 0.2 mm 3 mps 751 mmHg 81%
    14:00 +14°C° 0.2 mm 3 mps 751 mmHg 80%
    15:00 +16°C° 0.2 mm 3 mps 751 mmHg 79%
    16:00 +15°C° 0.2 mm 2 mps 751 mmHg 79%
    17:00 +15°C° 0.2 mm 2 mps 751 mmHg 80%
    18:00 +15°C° 0.2 mm 2 mps 751 mmHg 80%
    19:00 +14°C° 0.1 mm 2 mps 751 mmHg 84%
    20:00 +12°C° 0.1 mm 1 mps 751 mmHg 89%
    21:00 +11°C° 0.1 mm 1 mps 751 mmHg 93%
    22:00 +10°C° 0 mm 1 mps 750 mmHg 94%
    23:00 +9°C° 0 mm 1 mps 750 mmHg 95%

    Tomorrow, 19 June, Wednesday

    Time Temperature Precipitation Wind Pressure Humidity
    00:00 +8°C° 0 mm 1 mps 750 mmHg 96%
    01:00 +8°C° 0 mm 1 mps 750 mmHg 96%
    02:00 +8°C° 0 mm 1 mps 749 mmHg 97%
    03:00 +8°C° 0 mm 1 mps 749 mmHg 97%
    04:00 +9°C° 0 mm 1 mps 749 mmHg 97%
    05:00 +9°C° 0 mm 1 mps 749 mmHg 97%
    06:00 +10°C° 0 mm 1 mps 749 mmHg 96%
    07:00 +11°C° 0.1 mm 1 mps 749 mmHg 95%
    08:00 +10°C° 0.1 mm 2 mps 749 mmHg 93%
    09:00 +12°C° 0.1 mm 2 mps 749 mmHg 92%
    10:00 +13°C° 0.2 mm 2 mps 749 mmHg 88%
    11:00 +13°C° 0.2 mm 3 mps 749 mmHg 84%
    12:00 +14°C° 0.2 mm 3 mps 749 mmHg 80%
    13:00 +14°C° 0.3 mm 3 mps 749 mmHg 79%
    14:00 +14°C° 0.3 mm 4 mps 749 mmHg 78%
    15:00 +14°C° 0.3 mm 4 mps 748 mmHg 77%
    16:00 +13°C° 0.2 mm 3 mps 748 mmHg 81%
    17:00 +12°C° 0.2 mm 3 mps 748 mmHg 84%
    18:00 +11°C° 0.2 mm 3 mps 748 mmHg 88%
    19:00 +10°C° 0 mm 2 mps 748 mmHg 90%
    20:00 +9°C° 0 mm 2 mps 748 mmHg 92%
    21:00 +9°C° 0 mm 2 mps 749 mmHg 94%
    22:00 +8°C° 0 mm 2 mps 749 mmHg 95%
    23:00 +7°C° 0 mm 2 mps 748 mmHg 96%

    Day after tomorrow, 20 June, Thursday

    Time Temperature Precipitation Wind Pressure Humidity
    00:00 +6°C° 0 mm 2 mps 748 mmHg 96%
    01:00 +6°C° 0 mm 2 mps 748 mmHg 96%
    02:00 +5°C° 0 mm 2 mps 748 mmHg 97%
    03:00 +5°C° 0 mm 2 mps 749 mmHg 97%
    04:00 +6°C° 0.1 mm 2 mps 749 mmHg 97%
    05:00 +7°C° 0.1 mm 2 mps 749 mmHg 97%
    06:00 +7°C° 0.1 mm 2 mps 749 mmHg 97%
    07:00 +9°C° 0.3 mm 3 mps 750 mmHg 94%
    08:00 +10°C° 0.3 mm 3 mps 750 mmHg 92%
    09:00 +11°C° 0.3 mm 4 mps 750 mmHg 89%
    10:00 +12°C° 0.2 mm 4 mps 751 mmHg 80%
    11:00 +13°C° 0.2 mm 4 mps 751 mmHg 70%
    12:00 +14°C° 0.2 mm 5 mps 751 mmHg 61%
    13:00 +14°C° 0.2 mm 5 mps 751 mmHg 61%
    14:00 +14°C° 0.2 mm 5 mps 751 mmHg 61%
    15:00 +14°C° 0.2 mm 5 mps 751 mmHg 62%
    16:00 +14°C° 0.2 mm 4 mps 752 mmHg 65%
    17:00 +13°C° 0.2 mm 3 mps 752 mmHg 69%
    18:00 +13°C° 0.2 mm 3 mps 752 mmHg 73%
    19:00 +12°C° 0.1 mm 2 mps 752 mmHg 78%
    20:00 +10°C° 0.1 mm 2 mps 752 mmHg 84%
    21:00 +9°C° 0.1 mm 1 mps 752 mmHg 89%
    22:00 +9°C° 0 mm 1 mps 753 mmHg 91%
    23:00 +8°C° 0 mm 1 mps 753 mmHg 92%

    21 June, Friday

    Time Temperature Precipitation Wind Pressure Humidity
    00:00 +8°C° 0 mm 1 mps 753 mmHg 93%
    01:00 +8°C° 0 mm 1 mps 753 mmHg 93%
    02:00 +7°C° 0 mm 1 mps 753 mmHg 94%
    03:00 +7°C° 0 mm 1 mps 753 mmHg 94%
    04:00 +8°C° 0 mm 1 mps 754 mmHg 94%
    05:00 +7°C° 0 mm 2 mps 754 mmHg 93%
    06:00 +8°C° 0 mm 2 mps 754 mmHg 92%
    07:00 +9°C° 0 mm 2 mps 755 mmHg 84%
    08:00 +12°C° 0 mm 2 mps 755 mmHg 75%
    09:00 +12°C° 0 mm 3 mps 756 mmHg 66%
    10:00 +13°C° 0 mm 3 mps 756 mmHg 63%
    11:00 +14°C° 0 mm 3 mps 756 mmHg 59%
    12:00 +16°C° 0 mm 3 mps 756 mmHg 55%
    13:00 +16°C° 0.2 mm 2 mps 756 mmHg 57%
    14:00 +16°C° 0.2 mm 2 mps 757 mmHg 60%
    15:00 +16°C° 0.2 mm 2 mps 757 mmHg 62%
    16:00 +16°C° 0.2 mm 2 mps 757 mmHg 64%
    17:00 +15°C° 0.2 mm 2 mps 757 mmHg 66%
    18:00 +15°C° 0.2 mm 2 mps 757 mmHg 68%
    19:00 +13°C° 0.1 mm 2 mps 757 mmHg 76%
    20:00 +11°C° 0.1 mm 1 mps 757 mmHg 84%
    21:00 +9°C° 0.1 mm 1 mps 757 mmHg 92%
    22:00 +9°C° 0 mm 1 mps 757 mmHg 93%
    23:00 +8°C° 0 mm 1 mps 757 mmHg 94%

    22 June, Saturday

    Time Temperature Precipitation Wind Pressure Humidity
    00:00 +8°C° 0 mm 1 mps 757 mmHg 95%
    01:00 +7°C° 0 mm 1 mps 757 mmHg 95%
    02:00 +7°C° 0 mm 1 mps 757 mmHg 96%
    03:00 +7°C° 0 mm 1 mps 757 mmHg 96%
    04:00 +8°C° 0 mm 1 mps 757 mmHg 95%
    05:00 +8°C° 0 mm 0 mps 757 mmHg 94%
    06:00 +8°C° 0 mm 0 mps 757 mmHg 93%
    07:00 +11°C° 0 mm 1 mps 757 mmHg 87%
    08:00 +13°C° 0 mm 1 mps 757 mmHg 80%
    09:00 +15°C° 0 mm 1 mps 757 mmHg 74%
    10:00 +15°C° 0.2 mm 1 mps 757 mmHg 72%
    11:00 +16°C° 0.2 mm 1 mps 757 mmHg 70%
    12:00 +18°C° 0.2 mm 1 mps 757 mmHg 68%
    13:00 +17°C° 0.4 mm 2 mps 757 mmHg 69%
    14:00 +17°C° 0.4 mm 2 mps 757 mmHg 69%
    15:00 +18°C° 0.4 mm 2 mps 758 mmHg 70%
    16:00 +17°C° 0.3 mm 2 mps 757 mmHg 74%
    17:00 +16°C° 0.3 mm 2 mps 757 mmHg 78%
    18:00 +16°C° 0.3 mm 2 mps 757 mmHg 82%
    19:00 +15°C° 0.1 mm 1 mps 757 mmHg 86%
    20:00 +13°C° 0.1 mm 1 mps 758 mmHg 90%
    21:00 +12°C° 0.1 mm 1 mps 758 mmHg 95%
    22:00 +12°C° 0 mm 1 mps 758 mmHg 95%
    23:00 +12°C° 0 mm 1 mps 758 mmHg 95%

    23 June, Sunday

    Time Temperature Precipitation Wind Pressure Humidity
    00:00 +11°C° 0 mm 1 mps 758 mmHg 95%
    01:00 +11°C° 0 mm 1 mps 758 mmHg 96%
    02:00 +11°C° 0 mm 1 mps 758 mmHg 96%
    03:00 +11°C° 0 mm 1 mps 758 mmHg 96%
    04:00 +11°C° 0 mm 1 mps 758 mmHg 95%
    05:00 +12°C° 0 mm 1 mps 758 mmHg 95%
    06:00 +12°C° 0 mm 1 mps 758 mmHg 95%
    07:00 +13°C° 0 mm 1 mps 758 mmHg 89%
    08:00 +15°C° 0 mm 1 mps 758 mmHg 83%
    09:00 +16°C° 0 mm 1 mps 758 mmHg 77%
    10:00 +17°C° 0.1 mm 2 mps 758 mmHg 73%
    11:00 +18°C° 0.1 mm 2 mps 758 mmHg 68%
    12:00 +19°C° 0.1 mm 2 mps 758 mmHg 64%
    13:00 +19°C° 0.1 mm 3 mps 758 mmHg 65%
    14:00 +19°C° 0.1 mm 3 mps 758 mmHg 67%
    15:00 +19°C° 0.1 mm 3 mps 758 mmHg 68%
    16:00 +19°C° 0.2 mm 3 mps 758 mmHg 72%
    17:00 +18°C° 0.2 mm 3 mps 758 mmHg 76%
    18:00 +18°C° 0.2 mm 3 mps 757 mmHg 80%
    19:00 +16°C° 0 mm 2 mps 758 mmHg 84%
    20:00 +15°C° 0 mm 2 mps 758 mmHg 89%
    21:00 +13°C° 0 mm 2 mps 758 mmHg 94%
    22:00 +12°C° 0 mm 2 mps 758 mmHg 94%
    23:00 +12°C° 0 mm 2 mps 758 mmHg 95%
    Show more